Simultaneous Nadir Overpasses (SNOs) Predictions

Prediction of SNOs between NOAA-19 and NPP Satellite Orbit:

Table of predicted SNOs for the next 14.0 days since TLE Epoch: 8/17/2013
Index Date (NOAA-19) Time (NOAA-19) Lat,Lon (NOAA-19) SZA (NOAA-19 ) Date (NPP) Time (NPP) Lat,Lon (NPP) SZA (NPP ) Distance(km) Time Diff (sec)
1 08/28/2013 07:58:45 80.94, 7.50 75.02 08/28/2013 07:59:42 80.94, 7.42 75.00 1.37 57
2 08/28/2013 08:49:44 -80.95, 174.62 104.95 08/28/2013 08:50:27 -80.95, 174.62 104.98 0.18 43
3 08/28/2013 09:40:48 80.93, -17.50 74.97 08/28/2013 09:41:11 80.93, -17.60 74.97 1.73 23
4 08/28/2013 10:31:46 -80.92, 149.98 105.06 08/28/2013 10:31:55 -80.92, 149.97 105.06 0.32 9
5 08/28/2013 11:22:51 80.91, -42.50 74.92 08/28/2013 11:22:40 80.91, -42.62 74.94 2.10 11
6 08/28/2013 12:13:49 -80.90, 124.98 105.11 08/28/2013 12:13:24 -80.90, 124.95 105.09 0.57 25
7 08/28/2013 13:04:53 80.87, -67.14 74.81 08/28/2013 13:04:08 80.88, -67.28 74.85 2.44 45




NCC Satellite Simultaneous Nadir Overpasses (SNOs) Prediction Service
